| time (UTC) | temp F | wind direction | speed knots | gust knots | rain 1hr in | rain 24hr in | rain mn in | humidity % | barometer mb |
| 20260503195005 | 78 | 319 | 1.7 | 4.3 | 0.00 | 0.00 | 0.00 | 54 | 1001.9 |
| 20260503194504 | 77 | 305 | 0.9 | 2.6 | 0.00 | 0.00 | 0.00 | 54 | 1001.9 |
| 20260503193504 | 77 | 271 | 1.7 | 4.3 | 0.00 | 0.00 | 0.00 | 54 | 1002.1 |
| 20260503193004 | 76 | 273 | 1.7 | 2.6 | 0.00 | 0.00 | 0.00 | 56 | 1002.2 |
| 20260503192504 | 76 | 248 | 1.7 | 4.3 | 0.00 | 0.00 | 0.00 | 57 | 1002.2 |
| 20260503192004 | 77 | 268 | 1.7 | 4.3 | 0.00 | 0.00 | 0.00 | 55 | 1002.3 |
| 20260503191504 | 77 | 285 | 1.7 | 2.6 | 0.00 | 0.00 | 0.00 | 55 | 1002.3 |
| 20260503191004 | 77 | 331 | 1.7 | 4.3 | 0.00 | 0.00 | 0.00 | 55 | 1002.4 |
| 20260503190504 | 76 | 288 | 1.7 | 4.3 | 0.00 | 0.00 | 0.00 | 55 | 1002.4 |
| 20260503185504 | 73 | 256 | 1.7 | 4.3 | 0.00 | 0.00 | 0.00 | 57 | 1002.5 |
| 20260503184504 | 72 | 281 | 1.7 | 4.3 | 0.00 | 0.00 | 0.00 | 60 | 1002.6 |
| 20260503184004 | 73 | 273 | 1.7 | 4.3 | 0.00 | 0.00 | 0.00 | 60 | 1002.7 |
| 20260503183503 | 73 | 255 | 1.7 | 4.3 | 0.00 | 0.00 | 0.00 | 59 | 1002.8 |
| 20260503183004 | 73 | 333 | 1.7 | 4.3 | 0.00 | 0.00 | 0.00 | 60 | 1002.8 |
| 20260503182004 | 72 | 265 | 1.7 | 2.6 | 0.00 | 0.00 | 0.00 | 62 | 1002.9 |
| 20260503181006 | 71 | 23 | 0.9 | 2.6 | 0.00 | 0.00 | 0.00 | 62 | 1002.9 |
| 20260503180505 | 72 | 308 | 0.9 | 6.1 | 0.00 | 0.00 | 0.00 | 61 | 1003.0 |
| 20260503180006 | 71 | 358 | 1.7 | 2.6 | 0.00 | 0.00 | 0.00 | 61 | 1003.0 |
| 20260503175505 | 71 | 351 | 1.7 | 2.6 | 0.00 | 0.00 | 0.00 | 62 | 1003.1 |
| 20260503175006 | 70 | 275 | 1.7 | 4.3 | 0.00 | 0.00 | 0.00 | 64 | 1003.2 |
| 20260503174506 | 70 | 38 | 0.9 | 4.3 | 0.00 | 0.00 | 0.00 | 65 | 1003.1 |
| 20260503173506 | 69 | 287 | 1.7 | 2.6 | 0.00 | 0.00 | 0.00 | 66 | 1003.2 |
| 20260503171505 | 67 | 260 | 1.7 | 4.3 | 0.00 | 0.00 | 0.00 | 72 | 1003.3 |
| 20260503171005 | 67 | 240 | 1.7 | 4.3 | 0.00 | 0.00 | 0.00 | 71 | 1003.3 |
| 20260503170505 | 67 | 245 | 0.9 | 2.6 | 0.00 | 0.00 | 0.00 | 71 | 1003.4 |
| 20260503151005 | 55 | 258 | 0.9 | 1.7 | 0.00 | 0.00 | 0.00 | 87 | 1003.6 |
| 20260503150505 | 54 | 19 | 0.9 | 1.7 | 0.00 | 0.00 | 0.00 | 89 | 1003.7 |
| 20260503131005 | 50 | 257 | 0.0 | 0.9 | 0.00 | 0.00 | 0.00 | 97 | 1003.2 |
| 20260503090506 | 53 | 283 | 0.0 | 0.9 | 0.00 | 0.00 | 0.00 | 91 | 1003.6 |
| 20260503081505 | 54 | 258 | 0.0 | 0.9 | 0.00 | 0.00 | 0.00 | 87 | 1003.7 |
| 20260503080505 | 55 | 326 | 0.0 | 0.9 | 0.00 | 0.00 | 0.00 | 87 | 1003.6 |
| 20260503072505 | 55 | 282 | 0.0 | 0.9 | 0.00 | 0.00 | 0.00 | 84 | 1003.6 |
| 20260503072005 | 55 | 270 | 0.0 | 0.9 | 0.00 | 0.00 | 0.00 | 84 | 1003.6 |
| 20260503071505 | 55 | 288 | 0.0 | 0.9 | 0.00 | 0.00 | 0.00 | 83 | 1003.6 |
| 20260503071005 | 55 | 280 | 0.0 | 0.0 | 0.00 | 0.00 | 0.00 | 83 | 1003.6 |
| 20260503070505 | 55 | 280 | 0.0 | 0.0 | 0.00 | 0.00 | 0.00 | 83 | 1003.5 |
| 20260503054504 | 58 | 61 | 0.0 | 0.0 | 0.00 | 0.01 | 0.00 | 77 | 1003.3 |
| 20260503053504 | 58 | 61 | 0.0 | 0.9 | 0.00 | 0.01 | 0.00 | 76 | 1003.3 |
| 20260503053004 | 58 | 284 | 0.0 | 0.9 | 0.00 | 0.01 | 0.00 | 76 | 1003.3 |
| 20260503052505 | 59 | 71 | 0.0 | 0.9 | 0.00 | 0.01 | 0.00 | 76 | 1003.2 |
| 20260503052005 | 59 | 356 | 0.0 | 0.9 | 0.00 | 0.01 | 0.00 | 73 | 1003.2 |
| 20260503051005 | 59 | 314 | 0.9 | 1.7 | 0.00 | 0.01 | 0.00 | 74 | 1003.1 |
| 20260503050004 | 60 | 304 | 0.9 | 1.7 | 0.00 | 0.01 | 0.00 | 73 | 1003.0 |
| 20260503045504 | 60 | 281 | 0.0 | 0.9 | 0.00 | 0.01 | 0.00 | 73 | 1003.0 |
| 20260503045005 | 60 | 252 | 0.0 | 1.7 | 0.00 | 0.01 | 0.00 | 73 | 1002.9 |
| 20260503044505 | 60 | 285 | 0.0 | 1.7 | 0.00 | 0.01 | 0.00 | 72 | 1002.9 |
| 20260503044004 | 60 | 262 | 0.0 | 1.7 | 0.00 | 0.01 | 0.00 | 72 | 1002.8 |
| 20260503043504 | 61 | 330 | 0.0 | 1.7 | 0.00 | 0.01 | 0.00 | 72 | 1002.8 |
| 20260503043004 | 61 | 261 | 0.9 | 1.7 | 0.00 | 0.01 | 0.00 | 72 | 1002.8 |
| 20260503042505 | 61 | 309 | 0.9 | 2.6 | 0.00 | 0.01 | 0.00 | 71 | 1002.7 |
| 20260503041504 | 62 | 267 | 0.0 | 1.7 | 0.00 | 0.01 | 0.00 | 71 | 1002.5 |
| 20260503041005 | 62 | 277 | 0.9 | 1.7 | 0.00 | 0.01 | 0.00 | 70 | 1002.5 |
| 20260503035504 | 63 | 268 | 0.0 | 2.6 | 0.00 | 0.01 | 0.00 | 70 | 1002.4 |
| 20260503035004 | 64 | 295 | 0.0 | 1.7 | 0.00 | 0.01 | 0.00 | 67 | 1002.3 |
| 20260503034504 | 64 | 301 | 0.0 | 1.7 | 0.00 | 0.01 | 0.00 | 68 | 1002.2 |
| 20260503034004 | 64 | 291 | 0.9 | 4.3 | 0.00 | 0.01 | 0.00 | 66 | 1002.2 |
| 20260503033505 | 65 | 322 | 0.0 | 1.7 | 0.00 | 0.01 | 0.00 | 67 | 1002.1 |
| 20260503033004 | 65 | 334 | 0.0 | 0.9 | 0.00 | 0.02 | 0.00 | 67 | 1002.0 |
| 20260503032504 | 66 | 302 | 0.0 | 0.9 | 0.00 | 0.02 | 0.00 | 65 | 1002.0 |
| 20260503032005 | 66 | 285 | 0.9 | 2.6 | 0.00 | 0.02 | 0.00 | 63 | 1002.0 |
| 20260503031504 | 66 | 291 | 0.9 | 2.6 | 0.00 | 0.02 | 0.00 | 61 | 1002.0 |
| 20260503031004 | 67 | 254 | 0.9 | 2.6 | 0.00 | 0.02 | 0.00 | 62 | 1001.9 |
| 20260503030504 | 67 | 252 | 0.9 | 2.6 | 0.00 | 0.02 | 0.00 | 62 | 1001.9 |
| 20260503025504 | 68 | 237 | 0.9 | 2.6 | 0.00 | 0.02 | 0.00 | 62 | 1001.8 |
| 20260503025004 | 68 | 251 | 0.9 | 2.6 | 0.00 | 0.02 | 0.00 | 60 | 1001.8 |
| 20260503024004 | 69 | 291 | 0.9 | 2.6 | 0.00 | 0.02 | 0.00 | 59 | 1001.7 |
| 20260503023504 | 69 | 249 | 0.9 | 2.6 | 0.00 | 0.02 | 0.00 | 60 | 1001.7 |
| 20260503023004 | 70 | 224 | 0.9 | 2.6 | 0.00 | 0.02 | 0.00 | 57 | 1001.7 |
| 20260503022003 | 70 | 276 | 0.9 | 2.6 | 0.00 | 0.02 | 0.00 | 56 | 1001.7 |
| 20260503020504 | 72 | 302 | 0.9 | 2.6 | 0.00 | 0.02 | 0.00 | 54 | 1001.8 |
| 20260503020004 | 73 | 49 | 0.9 | 4.3 | 0.00 | 0.02 | 0.00 | 53 | 1001.8 |
| 20260503015504 | 73 | 313 | 0.0 | 4.3 | 0.00 | 0.02 | 0.00 | 52 | 1001.9 |
| 20260503015004 | 74 | 278 | 0.9 | 2.6 | 0.00 | 0.02 | 0.00 | 53 | 1001.9 |
| 20260503014503 | 75 | 262 | 0.9 | 1.7 | 0.00 | 0.02 | 0.00 | 50 | 1002.0 |
| 20260503014004 | 75 | 296 | 0.9 | 4.3 | 0.00 | 0.02 | 0.00 | 50 | 1002.0 |
| 20260503013503 | 75 | 296 | 0.9 | 2.6 | 0.00 | 0.02 | 0.00 | 51 | 1002.0 |
| 20260503013004 | 75 | 277 | 0.9 | 5.2 | 0.00 | 0.02 | 0.00 | 51 | 1002.0 |
| 20260503012504 | 75 | 250 | 0.9 | 2.6 | 0.00 | 0.02 | 0.00 | 50 | 1002.1 |
| 20260503012004 | 75 | 334 | 0.9 | 5.2 | 0.00 | 0.02 | 0.00 | 50 | 1002.1 |
| 20260503011504 | 76 | 283 | 1.7 | 5.2 | 0.00 | 0.02 | 0.00 | 50 | 1002.1 |
| 20260503011004 | 75 | 295 | 1.7 | 4.3 | 0.00 | 0.02 | 0.00 | 50 | 1002.2 |
| 20260503010503 | 75 | 279 | 1.7 | 4.3 | 0.00 | 0.02 | 0.00 | 50 | 1002.2 |
| 20260503010004 | 75 | 274 | 1.7 | 6.1 | 0.00 | 0.02 | 0.00 | 50 | 1002.2 |
| 20260503005504 | 74 | 312 | 0.9 | 4.3 | 0.00 | 0.02 | 0.00 | 50 | 1002.2 |
| 20260503004004 | 75 | 288 | 1.7 | 6.1 | 0.00 | 0.02 | 0.00 | 49 | 1002.3 |
| 20260503003504 | 75 | 252 | 0.9 | 5.2 | 0.00 | 0.02 | 0.00 | 48 | 1002.2 |
| 20260503002503 | 74 | 356 | 1.7 | 7.8 | 0.00 | 0.02 | 0.00 | 49 | 1002.3 |
| 20260503002003 | 74 | 311 | 1.7 | 4.3 | 0.00 | 0.02 | 0.00 | 49 | 1002.3 |
| 20260503001004 | 74 | 289 | 2.6 | 7.8 | 0.00 | 0.02 | 0.00 | 51 | 1002.4 |
| 20260503000504 | 75 | 329 | 1.7 | 7.0 | 0.00 | 0.02 | 0.00 | 52 | 1002.4 |
| 20260503000005 | 75 | 242 | 2.6 | 7.8 | 0.00 | 0.02 | 0.00 | 52 | 1002.5 |
| 20260502235505 | 75 | 337 | 1.7 | 4.3 | 0.00 | 0.02 | 0.00 | 52 | 1002.6 |
| 20260502235005 | 74 | 284 | 1.7 | 5.2 | 0.00 | 0.02 | 0.00 | 53 | 1002.6 |
| 20260502234505 | 75 | 329 | 2.6 | 7.0 | 0.00 | 0.02 | 0.00 | 51 | 1002.5 |
| 20260502233506 | 75 | 252 | 1.7 | 5.2 | 0.00 | 0.02 | 0.00 | 52 | 1002.8 |
| 20260502232506 | 75 | 312 | 2.6 | 6.1 | 0.00 | 0.02 | 0.00 | 53 | 1002.9 |
| 20260502232005 | 76 | 225 | 2.6 | 6.1 | 0.00 | 0.02 | 0.00 | 52 | 1002.9 |
| 20260502231506 | 75 | 326 | 1.7 | 4.3 | 0.00 | 0.02 | 0.00 | 51 | 1003.0 |
| 20260502231005 | 74 | 267 | 1.7 | 5.2 | 0.00 | 0.02 | 0.00 | 53 | 1003.0 |
| 20260502230506 | 74 | 257 | 1.7 | 5.2 | 0.00 | 0.02 | 0.00 | 54 | 1003.2 |
| 20260502230005 | 75 | 309 | 2.6 | 5.2 | 0.00 | 0.02 | 0.00 | 52 | 1003.1 |
| 20260502225506 | 75 | 254 | 0.9 | 5.2 | 0.00 | 0.02 | 0.00 | 53 | 1003.2 |
| 20260502224505 | 75 | 261 | 2.6 | 6.1 | 0.00 | 0.02 | 0.00 | 54 | 1003.3 |
| 20260502224006 | 75 | 276 | 1.7 | 4.3 | 0.00 | 0.02 | 0.00 | 54 | 1003.4 |
| 20260502223505 | 74 | 276 | 1.7 | 4.3 | 0.00 | 0.02 | 0.00 | 55 | 1003.4 |
| 20260502223006 | 73 | 41 | 1.7 | 6.1 | 0.00 | 0.02 | 0.00 | 57 | 1003.5 |
| 20260502222507 | 73 | 289 | 1.7 | 6.1 | 0.00 | 0.02 | 0.00 | 58 | 1003.8 |
| 20260502221006 | 73 | 34 | 1.7 | 5.2 | 0.00 | 0.02 | 0.00 | 59 | 1003.7 |
| 20260502220005 | 74 | 246 | 2.6 | 6.1 | 0.00 | 0.02 | 0.00 | 58 | 1003.8 |
| 20260502215505 | 74 | 270 | 1.7 | 4.3 | 0.00 | 0.02 | 0.00 | 59 | 1003.8 |
| 20260502215005 | 74 | 251 | 0.9 | 5.2 | 0.00 | 0.02 | 0.00 | 59 | 1004.0 |
| 20260502214505 | 74 | 311 | 1.7 | 6.1 | 0.00 | 0.02 | 0.00 | 61 | 1003.9 |
| 20260502214005 | 74 | 113 | 1.7 | 5.2 | 0.00 | 0.02 | 0.00 | 61 | 1004.0 |
| 20260502213506 | 74 | 267 | 1.7 | 5.2 | 0.00 | 0.02 | 0.00 | 60 | 1004.0 |
| 20260502213005 | 74 | 299 | 1.7 | 5.2 | 0.00 | 0.02 | 0.00 | 60 | 1004.1 |
| 20260502212506 | 74 | 315 | 0.9 | 4.3 | 0.00 | 0.02 | 0.00 | 60 | 1004.2 |
| 20260502212005 | 74 | 250 | 2.6 | 6.1 | 0.00 | 0.02 | 0.00 | 59 | 1004.2 |
| 20260502211506 | 74 | 288 | 1.7 | 4.3 | 0.00 | 0.02 | 0.00 | 60 | 1004.2 |
| 20260502211005 | 73 | 7 | 1.7 | 6.1 | 0.00 | 0.02 | 0.00 | 61 | 1004.3 |
| 20260502210505 | 73 | 252 | 1.7 | 5.2 | 0.00 | 0.02 | 0.00 | 61 | 1004.3 |
| 20260502210005 | 73 | 260 | 1.7 | 5.2 | 0.00 | 0.02 | 0.00 | 62 | 1004.3 |
| 20260502205505 | 73 | 264 | 1.7 | 4.3 | 0.00 | 0.02 | 0.00 | 61 | 1004.4 |
| 20260502205005 | 73 | 243 | 1.7 | 5.2 | 0.00 | 0.02 | 0.00 | 62 | 1004.4 |
| 20260502204504 | 73 | 253 | 0.9 | 7.0 | 0.00 | 0.02 | 0.00 | 62 | 1004.4 |
| 20260502204005 | 73 | 2 | 1.7 | 6.1 | 0.00 | 0.02 | 0.00 | 62 | 1004.4 |
| 20260502203504 | 72 | 270 | 0.9 | 6.1 | 0.00 | 0.02 | 0.00 | 62 | 1004.4 |
| 20260502203005 | 71 | 281 | 1.7 | 7.0 | 0.00 | 0.02 | 0.00 | 65 | 1004.4 |
| 20260502202504 | 71 | 256 | 2.6 | 5.2 | 0.00 | 0.02 | 0.00 | 64 | 1004.5 |
| 20260502202005 | 71 | 258 | 2.6 | 7.0 | 0.00 | 0.02 | 0.00 | 65 | 1004.5 |
| 20260502201505 | 71 | 288 | 1.7 | 4.3 | 0.00 | 0.02 | 0.00 | 65 | 1004.5 |
| 20260502201004 | 71 | 263 | 1.7 | 5.2 | 0.00 | 0.02 | 0.00 | 64 | 1004.6 |
| 20260502200505 | 70 | 280 | 0.9 | 5.2 | 0.00 | 0.02 | 0.00 | 65 | 1004.8 |
| 20260502200004 | 71 | 24 | 1.7 | 7.8 | 0.00 | 0.02 | 0.00 | 65 | 1004.7 |
| 20260502195505 | 70 | 227 | 1.7 | 5.2 | 0.00 | 0.02 | 0.00 | 64 | 1004.8 |